Change the Weather History Date:

Tuesday, December 4, 2012

  Actual Average Record
Temperature  
Mean Temperature 50 °F -  
Max Temperature 59 °F 38 °F 63 °F (1998)
Min Temperature 41 °F 23 °F -4 °F (2002)
Degree Days  
Heating Degree Days 15    
Moisture  
Dew Point 44 °F    
Average Humidity 79    
Maximum Humidity 93    
Minimum Humidity 68    
Precipitation  
Precipitation 0.13 in - - ()
Sea Level Pressure  
Sea Level Pressure 30.03 in    
Wind  
Wind Speed 11 mph (West)    
Max Wind Speed 15 mph    
Max Gust Speed 20 mph    
Visibility 10 miles    
Events Rain    
Averages and records for this station are not official NWS values.
T = Trace of Precipitation, MM = Missing Value Source: NWS Daily Summary

Daily Weather History Graph

Daily Weather History Graph

Search for Another Location

Airport or City:

Trip Planner

Search our weather history database for the weather conditions in past years. The results will help you decide how hot, cold, wet, or windy it might be!

Date:

Astronomy

Dec. 04, 2012 Rise Set
Actual Time 7:47 AM EST 5:05 PM EST
Civil Twilight 7:16 AM EST 5:36 PM EST
Nautical Twilight 6:41 AM EST 6:11 PM EST
Astronomical Twilight 6:08 AM EST 6:45 PM EST
Moon 10:55 PM EST (12/4) 11:38 AM EST (12/4)
Length of Visible Light 10h 20m
Length of Day
9h 17m
Waning Gibbous, 69% of the Moon is Illuminated
Dec 4
Waning Gibbous
Dec 6
Last Quarter
Dec 13
New
Dec 20
First Quarter
Dec 28
Full

Hourly Weather History & Observations

Time (EST) Temp. Windchill Dew Point Humidity Pressure Visibility Wind Dir Wind Speed Gust Speed Precip Events Conditions
12:53 AM 57.9 °F - 53.1 °F 84% 29.96 in 10.0 mi SW 13.8 mph - N/A   Scattered Clouds
1:53 AM 57.9 °F - 53.1 °F 84% 29.96 in 10.0 mi SW 15.0 mph - N/A   Scattered Clouds
2:53 AM 57.9 °F - 52.0 °F 81% 29.96 in 10.0 mi SW 13.8 mph - N/A   Partly Cloudy
3:53 AM 57.0 °F - 51.1 °F 81% 29.95 in 10.0 mi SW 11.5 mph - N/A   Partly Cloudy
4:53 AM 57.9 °F - 51.1 °F 78% 29.95 in 10.0 mi SW 13.8 mph - N/A   Mostly Cloudy
5:34 AM 57.2 °F - 51.8 °F 82% 29.94 in 10.0 mi SW 15.0 mph - N/A   Overcast
5:53 AM 57.9 °F - 51.1 °F 78% 29.94 in 10.0 mi SW 15.0 mph - N/A   Overcast
6:53 AM 59.0 °F - 51.1 °F 75% 29.95 in 10.0 mi SW 15.0 mph - N/A   Overcast
7:53 AM 57.9 °F - 51.1 °F 78% 29.97 in 10.0 mi WSW 10.4 mph 19.6 mph N/A   Overcast
8:53 AM 51.1 °F - 48.0 °F 89% 30.01 in 8.0 mi NNW 9.2 mph - 0.06 in Rain Light Rain
9:11 AM 50.0 °F - 46.4 °F 87% 30.02 in 9.0 mi NNW 9.2 mph - 0.01 in Rain Light Rain
9:38 AM 48.2 °F - 46.4 °F 93% 30.01 in 4.0 mi North 12.7 mph - 0.03 in Rain Light Rain
9:53 AM 48.0 °F - 44.1 °F 86% 30.03 in 8.0 mi NNW 10.4 mph - 0.04 in Rain Light Rain
10:53 AM 48.9 °F - 46.0 °F 90% 30.05 in 9.0 mi WNW 5.8 mph - 0.01 in Rain Light Rain
11:53 AM 48.0 °F - 42.1 °F 80% 30.03 in 10.0 mi NW 3.5 mph - 0.01 in Rain Light Rain
12:53 PM 48.0 °F - 41.0 °F 77% 30.02 in 10.0 mi West 3.5 mph - 0.01 in Rain Light Rain
1:53 PM 48.0 °F - 42.1 °F 80% 30.02 in 10.0 mi WSW 4.6 mph - 0.00 in Rain Light Rain
2:53 PM 48.0 °F - 43.0 °F 83% 30.04 in 10.0 mi West 8.1 mph - 0.00 in   Mostly Cloudy
3:53 PM 48.9 °F - 42.1 °F 77% 30.05 in 10.0 mi WNW 6.9 mph - N/A   Overcast
4:53 PM 48.0 °F - 41.0 °F 77% 30.06 in 10.0 mi West 8.1 mph - N/A   Scattered Clouds
5:53 PM 46.0 °F 42.5 °F 39.9 °F 79% 30.07 in 10.0 mi West 6.9 mph - N/A   Scattered Clouds
6:53 PM 45.0 °F 40.6 °F 36.0 °F 71% 30.09 in 10.0 mi WNW 8.1 mph - N/A   Clear
7:53 PM 43.0 °F 38.8 °F 34.0 °F 71% 30.11 in 10.0 mi WSW 6.9 mph - N/A   Clear
8:53 PM 43.0 °F 38.2 °F 33.1 °F 68% 30.12 in 10.0 mi West 8.1 mph - N/A   Clear
9:53 PM 41.0 °F 37.1 °F 33.1 °F 73% 30.13 in 10.0 mi West 5.8 mph - N/A   Clear
10:53 PM 41.0 °F 36.4 °F 33.1 °F 73% 30.14 in 10.0 mi WNW 6.9 mph - N/A   Clear
11:53 PM 41.0 °F 35.8 °F 32.0 °F 70% 30.15 in 10.0 mi NW 8.1 mph - N/A   Clear